Regional Weather Roundup
Issued by NWS

Home | Current Version | Previous Version | Text Only | Print | Product List | Glossary On
Versions: 1 2 3 4 5 6 7 8 9 10 11 12 13 14 15 16 17 18 19 20 21 22 23 24 25 26 27 28 29 30 31 32 33 34 35 36 37 38 39 40 41 42 43 44 45 46 47 48 49 50
000
ASUS44 KLIX 261411
RWRLA
LOUISIANA WEATHER ROUNDUP
NATIONAL WEATHER SERVICE NEW ORLEANS LA
900 AM CDT TUE JUL 26 2016

NOTE: "FAIR" INDICATES FEW OR NO CLOUDS BELOW 12,000 FEET WITH NO
      SIGNIFICANT WEATHER AND/OR OBSTRUCTIONS TO VISIBILITY.
      SKY/WX - SKY CONDITION AND SIGNIFICANT WEATHER.
      TMP - AIR TEMPERATURE.    DP   - DEWPOINT TEMPERATURE.
      RH  - RELATIVE HUMIDITY.  PRES - PRESSURE.
      HX  - HEAT INDEX.         WCI  - WIND CHILL INDEX.

*  THESE STATIONS ARE NOT NWS OR FAA STATIONS AND ARE NOT UNDER
   NWS QUALITY CONTROL.

LAZ040-048-061>063-065-066-069-261500-
SOUTHEAST LOUISIANA

CITY           SKY/WX    TMP DP  RH WIND       PRES   REMARKS
N.O. AUDUBON     N/A     84  78  82 MISG        N/A  HX  95
N.O. INTL ARPT PTSUNNY   85  75  72 NE5       29.93S
N.O. LAKEFRONT RAIN      78  73  84 NW6       29.95R
N.O. DOWNTOWN* RAIN      81  75  82 N5        29.95R
RESERVE*       PTSUNNY   82  80  94 N5        29.94R
SLIDELL        CLOUDY    79  76  90 NE6       29.94F
BATON ROUGE    SUNNY     81  75  82 VRB3      29.94F
BOOTHVILLE     LGT RAIN  81  77  88 SW10      29.95R
BELLE CHASSE   PTSUNNY   85  78  80 NE3       29.93S HX  96
BOGALUSA*      CLOUDY    81  75  82 E5        29.98S
GALLIANO*      CLOUDY    70  70 100 W3        29.94S
NEW ROADS*     FAIR      79  75  89 CALM      29.94F
GONZALES*      CLOUDY    78  76  94 E3        29.94R
HAMMOND*       CLOUDY    79  73  83 E5        29.95S
HOUMA*         MOSUNNY   81  77  89 CALM      29.94S
PORT FOURCHON* CLOUDY    81  75  83 W7        29.94F

$$

LAZ041-044-053-054-261500-
SOUTHWEST LOUISIANA

CITY           SKY/WX    TMP DP  RH WIND       PRES   REMARKS
LAKE CHARLES   PTSUNNY   76  74  93 E5        29.94S
LAFAYETTE      CLOUDY    78  75  90 N6        29.94F FOG
PATTERSON      PTSUNNY   80  77  90 E5        29.94S
SALT POINT       N/A     82  74  76 CALM        N/A
NEW IBERIA     CLOUDY    77  75  93 N3        29.95R FOG
CHENAULT AIRPK NOT AVBL

$$

LAZ027-028-261500-
CENTRAL LOUISIANA

CITY           SKY/WX    TMP DP  RH WIND       PRES   REMARKS
FORT POLK      NOT AVBL
ALEXANDRIA INT CLOUDY    76  76 100 E5        29.95S FOG
ALEXANDRIA     CLOUDY    77  76  96 E3        29.96S

$$

LAZ001-002-261500-
NORTHWEST LOUISIANA

CITY           SKY/WX    TMP DP  RH WIND       PRES   REMARKS
SHREVEPORT     MOSUNNY   83  76  79 VRB3      29.96S
BARKSDALE AFB  NOT AVBL
DTN SHREVEPORT SUNNY     82  74  76 VRB3      29.96S

$$

LAZ014-016-261500-
NORTHEAST LOUISIANA

CITY           SKY/WX    TMP DP  RH WIND       PRES   REMARKS
MONROE         SUNNY     83  77  82 E6        29.99R
TALLULAH       SUNNY     85  75  72 E8        29.98S

$$




USA.gov is the U.S. government's official web portal to all federal, state and local government web resources and services.